Home   Weather   Vieux Fort   Past weeks

Flag for Saint Lucia Past Weather in Vieux Fort, Saint Lucia — Yesterday and Last 2 Weeks

Now
79 °F

Passing clouds.


Feels Like: 82 °F
Forecast: 82 / 87 °F
Wind: 17 mph from East

Location: Hewanorra International Airport

Current Time: Dec 11, 2016 at 4:07:49 am

Latest Report: Dec 11, 2016 at 3:00 am


Visibility: N/A

Pressure: 29.95 "Hg

Humidity: 84%

Dew Point: 73 °F

Location of Vieux FortLocation

Past Weather in Vieux Fort — Graph

°F

Vieux Fort Temperature Yesterday

Maximum temperature yesterday: 86 °F (at 10:00 am)
Minimum temperature yesterday: 79 °F (at 6:00 am)
Average temperature yesterday: 83 °F

High & Low Weather Summary for the Past Weeks

 TemperatureHumidityPressure
High88 °F (Nov 26, 1:00 pm)100% (Nov 29, 12:00 am)30.07 "Hg (Nov 29, 12:00 am)
Low72 °F (Nov 29, 5:00 pm)62% (Nov 26, 1:00 pm)29.77 "Hg (Nov 28, 4:00 am)
Average81 °F79%29.92 "Hg
* Reported Nov 26 2:00 am — Dec 11 2:00 am, Vieux Fort, Weather by CustomWeather, © 2016

Note: Actual official high and low records may vary slightly from our data, if they occured in-between our weather recording intervals... More about our weather records

Advertising

Vieux Fort Weather History for the Previous 24 Hours

Scroll right to see more
 ConditionsComfort  
Time TempWeatherWind HumidityBarometerVisibility
2:00 am
Sun, Dec 11
77 °FSprinkles. Passing clouds.20 mph94%29.95 "HgN/A
1:00 am82 °FPassing clouds.25 mph74%29.98 "HgN/A
12:00 am82 °FPassing clouds.24 mph74%29.98 "HgN/A
11:00 pm
Sat, Dec 10
82 °FSprinkles. Passing clouds.21 mph74%30.01 "HgN/A
10:00 pm82 °FPassing clouds.16 mph74%30.01 "HgN/A
9:00 pm82 °FPassing clouds.20 mph66%30.01 "HgN/A
8:00 pm82 °FPassing clouds.17 mph70%29.98 "HgN/A
7:00 pm82 °FPassing clouds.18 mph70%29.98 "HgN/A
6:00 pm82 °FPassing clouds.17 mph74%29.95 "HgN/A
5:00 pm82 °FScattered clouds.16 mph74%29.95 "HgN/A
4:00 pm84 °FScattered clouds.23 mph70%29.95 "HgN/A
3:00 pm84 °FPartly sunny.22 mph70%29.95 "HgN/A
2:00 pm84 °FPartly sunny.22 mph74%29.95 "HgN/A
1:00 pm84 °FPartly sunny.21 mph74%29.98 "HgN/A
12:00 pm86 °FPassing clouds.22 mph70%30.01 "HgN/A
11:00 am86 °FScattered clouds.22 mph70%30.04 "HgN/A
10:00 am86 °FScattered clouds.23 mph66%30.07 "HgN/A
9:00 am84 °FScattered clouds.23 mph74%30.04 "HgN/A
8:00 am81 °FPartly sunny.20 mph84%30.01 "HgN/A
7:00 am82 °FScattered clouds.20 mph79%30.01 "HgN/A
6:00 am79 °FPassing clouds.18 mph89%29.98 "HgN/A
5:00 am81 °FPassing clouds.20 mph84%29.95 "HgN/A
4:00 am82 °FPassing clouds.22 mph74%29.95 "HgN/A
Weather by CustomWeather, © 2016

See weather overviewHow to use our weather pages